CW7580 Weather Reports


Display with metric or nautical units.
time (UTC)temp
F
wind
direction
speed
MPH
gust
MPH
rain 1hr
in
rain 24hr
in
rain mn
in
humidity
%
barometer
mb
20260510131043 69 51 3.0 8.0 0.00 1.72 0.01 100 1014.1
20260510131039 69 57 4.0 8.0 0.00 0.00 0.01 100 1014.1
20260510130556 69 40 2.0 8.0 0.00 1.72 0.01 100 1014.0
20260510130127 69 49 3.0 7.0 0.00 1.72 0.01 100 1014.0
20260510130123 69 46 3.0 7.0 0.00 0.00 0.01 100 1014.0
20260510125529 69 17 3.0 7.0 0.00 1.72 0.01 100 1014.0
20260510125044 68 69 2.0 6.0 0.00 1.72 0.01 100 1013.9
20260510125040 69 70 2.0 6.0 0.00 0.00 0.01 100 1013.9
20260510124533 68 51 2.0 6.0 0.00 1.72 0.01 100 1013.7
20260510124046 68 59 2.0 6.0 0.00 1.72 0.01 100 1013.7
20260510124042 69 59 3.0 6.0 0.00 0.00 0.01 100 1013.7
20260510123532 68 65 2.0 6.0 0.00 1.72 0.01 100 1013.7
20260510123048 68 69 3.0 6.0 0.00 1.72 0.01 100 1013.6
20260510123044 68 58 3.0 6.0 0.00 0.00 0.01 100 1013.6
20260510122547 68 50 1.0 6.0 0.00 1.72 0.01 100 1013.6
20260510122058 68 51 1.0 6.0 0.00 1.72 0.01 100 1013.5
20260510122054 68 51 1.0 5.0 0.00 0.00 0.01 100 1013.5
20260510121547 68 49 2.0 6.0 0.00 1.72 0.01 100 1013.3
20260510121046 68 49 1.0 6.0 0.00 1.72 0.01 100 1013.2
20260510120548 68 59 1.0 6.0 0.00 1.72 0.01 100 1013.2
20260510120043 67 56 1.0 5.0 0.00 1.72 0.01 100 1013.1
20260510115543 67 83 0.0 6.0 0.00 1.72 0.01 100 1013.0
20260510115041 67 54 1.0 5.0 0.00 1.72 0.01 100 1012.8
20260510114550 67 54 2.0 5.0 0.00 1.72 0.01 100 1012.7
20260510114041 67 344 1.0 5.0 0.00 1.72 0.01 100 1012.7
20260510113539 66 339 1.0 5.0 0.00 1.72 0.01 100 1012.6
20260510113039 66 333 0.0 1.0 0.00 1.72 0.01 100 1012.5
20260510112538 66 333 0.0 1.0 0.00 1.72 0.01 100 1012.4
20260510112035 66 333 0.0 1.0 0.00 1.72 0.01 100 1012.3
20260510111538 66 333 0.0 1.0 0.00 1.72 0.01 100 1012.2
20260510111033 66 333 0.0 0.0 0.00 1.72 0.01 100 1012.1
20260510110535 66 333 0.0 1.0 0.00 1.72 0.01 100 1012.0
20260510110032 66 333 0.0 1.0 0.00 1.72 0.01 100 1011.9
20260510105532 66 333 0.0 1.0 0.00 1.72 0.01 100 1011.8
20260510105031 66 333 0.0 1.0 0.00 1.72 0.01 100 1011.7
20260510104530 66 333 0.0 2.0 0.00 1.72 0.01 100 1011.5
20260510104029 66 333 0.0 2.0 0.00 1.72 0.01 100 1011.4
20260510103530 66 333 0.0 1.0 0.00 1.72 0.01 100 1011.3
20260510103028 66 333 0.0 1.0 0.00 1.72 0.01 100 1011.3
20260510102528 66 333 0.0 2.0 0.00 1.72 0.01 100 1011.3
20260510102057 66 333 0.0 2.0 0.00 1.72 0.01 100 1011.3
20260510101600 65 333 0.0 2.0 0.00 1.72 0.01 100 1011.3
20260510101056 65 333 0.0 2.0 0.00 1.72 0.01 100 1011.2
20260510100556 65 333 0.0 2.0 0.00 1.72 0.01 100 1011.1
20260510100056 65 333 0.0 1.0 0.00 1.72 0.01 100 1011.0
20260510095556 65 333 0.0 1.0 0.00 1.72 0.01 100 1011.1
20260510095025 65 333 0.0 1.0 0.00 1.72 0.01 100 1011.0
20260510094540 65 333 0.0 0.0 0.00 1.72 0.01 100 1011.0
20260510094025 65 333 0.0 0.0 0.00 1.72 0.01 100 1011.1
20260510093525 65 333 0.0 0.0 0.00 1.72 0.01 100 1011.1
20260510093024 65 333 0.0 0.0 0.00 1.72 0.01 100 1011.1
20260510092524 65 333 0.0 0.0 0.00 1.72 0.01 100 1011.0
20260510092023 65 333 0.0 1.0 0.00 1.72 0.01 100 1011.0
20260510091525 65 333 0.0 1.0 0.00 1.72 0.01 100 1011.0
20260510091020 65 333 0.0 1.0 0.01 1.72 0.01 100 1011.1
20260510090520 65 333 0.0 1.0 0.01 1.72 0.01 100 1011.1
20260510090020 65 333 0.0 1.0 0.01 1.72 0.01 100 1010.9
20260510085521 65 333 0.0 0.0 0.01 1.72 0.01 100 1010.9
20260510085019 65 333 0.0 0.0 0.01 1.72 0.01 100 1010.9
20260510084521 65 333 0.0 0.0 0.01 1.72 0.01 100 1011.0
20260510084019 66 333 0.0 0.0 0.01 1.72 0.01 100 1011.0
20260510083519 66 333 0.0 0.0 0.01 1.72 0.01 100 1011.0
20260510083027 66 333 0.0 0.0 0.01 1.72 0.01 100 1011.0
20260510082518 66 333 0.0 1.0 0.01 1.72 0.01 100 1010.9
20260510082048 66 333 0.0 1.0 0.01 1.72 0.01 100 1010.9
20260510081549 66 333 0.0 1.0 0.01 1.72 0.01 100 1010.8
20260510081048 66 333 0.0 1.0 0.00 1.71 0.00 100 1010.9
20260510080550 66 333 0.0 1.0 0.00 1.71 0.00 100 1010.8
20260510080048 66 333 0.0 1.0 0.00 1.71 0.00 100 1010.8
20260510075550 66 333 0.0 1.0 0.00 1.71 0.00 100 1010.7
20260510075046 66 333 0.0 1.0 0.00 1.71 0.00 100 1010.6
20260510074548 66 333 0.0 1.0 0.00 1.71 0.00 100 1010.6
20260510074046 66 333 0.0 1.0 0.00 1.71 0.00 100 1010.5
20260510073546 66 333 0.0 1.0 0.00 1.71 0.00 100 1010.5
20260510073053 66 333 0.0 1.0 0.00 1.71 0.00 100 1010.6
20260510072545 66 333 0.0 1.0 0.00 1.71 0.00 100 1010.5
20260510072046 66 333 0.0 1.0 0.00 1.71 0.00 100 1010.5
20260510071545 66 333 0.0 1.0 0.00 1.71 0.00 100 1010.5
20260510071043 66 333 0.0 1.0 0.00 1.71 0.00 100 1010.5
20260510070543 66 333 0.0 1.0 0.00 1.71 0.00 100 1010.5
20260510070044 66 333 0.0 1.0 0.00 1.71 0.00 100 1010.5
20260510065546 66 333 0.0 1.0 0.00 1.71 0.00 100 1010.5
20260510065042 66 333 0.0 2.0 0.00 1.71 0.00 100 1010.5
20260510064541 66 333 0.0 2.0 0.00 1.71 0.00 100 1010.4
20260510064040 66 333 0.0 2.0 0.00 1.71 0.00 100 1010.4
20260510063542 66 333 0.0 1.0 0.00 1.71 0.00 100 1010.4
20260510063041 66 333 0.0 1.0 0.00 1.71 0.00 100 1010.3
20260510062542 66 333 0.0 1.0 0.00 1.71 0.00 100 1010.4
20260510062038 66 333 0.0 1.0 0.00 1.71 0.00 100 1010.5
20260510061538 66 333 0.0 1.0 0.00 1.71 0.00 100 1010.5
20260510061038 66 333 0.0 1.0 0.00 1.71 0.00 100 1010.6
20260510060537 66 331 0.0 1.0 0.00 1.71 0.00 100 1010.8
20260510060042 66 331 0.0 1.0 0.00 1.71 0.00 100 1010.8
20260510055536 66 331 0.0 2.0 0.00 1.71 0.00 100 1010.8
20260510055036 67 331 0.0 2.0 0.00 1.71 0.00 100 1011.0
20260510054539 67 331 0.0 5.0 0.00 1.71 0.00 100 1010.9
20260510054033 67 331 2.0 6.0 0.00 1.71 0.00 100 1011.0
20260510053532 67 329 2.0 6.0 0.00 1.71 0.00 100 1010.9
20260510053033 67 325 3.0 6.0 0.00 1.71 0.00 100 1010.9
20260510052531 67 355 2.0 5.0 0.00 1.71 0.00 100 1010.8
20260510052031 67 355 1.0 4.0 0.00 1.71 0.00 100 1010.7
20260510051534 67 355 0.0 4.0 0.00 1.71 0.00 100 1010.6
20260510051029 67 355 1.0 4.0 0.00 1.71 0.00 100 1010.6
20260510050532 67 355 0.0 5.0 0.00 1.71 0.00 100 1010.5
20260510050128 67 355 0.0 7.0 0.00 1.71 0.00 100 1010.4
20260510045531 67 355 2.0 6.0 0.00 1.71 0.14 100 1010.4
20260510045027 68 176 0.0 6.0 0.00 1.71 0.14 100 1010.1
20260510044525 68 176 1.0 6.0 0.00 1.71 0.14 100 1010.0
20260510044025 68 166 0.0 4.0 0.00 1.71 0.14 100 1009.8
20260510043525 68 163 0.0 8.0 0.00 1.71 0.14 100 1009.8
20260510043027 68 146 0.0 8.0 0.00 1.71 0.14 100 1009.7
20260510042523 68 159 1.0 9.0 0.00 1.71 0.14 100 1009.8
20260510042023 68 170 1.0 10.0 0.00 1.71 0.14 100 1009.9
20260510041523 68 159 3.0 12.0 0.00 1.71 0.14 100 1009.9
20260510041022 68 174 4.0 13.0 0.00 1.71 0.14 100 1010.1
20260510040522 68 171 5.0 13.0 0.00 1.71 0.14 100 1010.2
20260510040022 68 181 5.0 11.0 0.00 1.71 0.14 100 1010.4
20260510035523 68 176 6.0 11.0 0.00 1.71 0.14 100 1010.5
20260510035022 68 182 7.0 11.0 0.00 1.71 0.14 100 1010.7
20260510034518 68 178 5.0 11.0 0.00 1.71 0.14 100 1010.7
20260510034008 68 188 3.0 11.0 0.00 1.71 0.14 100 1010.7
20260510033512 68 184 2.0 9.0 0.00 1.71 0.14 100 1010.7
20260510033008 68 186 3.0 8.0 0.00 1.71 0.14 100 1010.6
20260510032509 68 178 2.0 7.0 0.00 1.71 0.14 100 1010.7
20260510032007 68 177 1.0 6.0 0.00 1.71 0.14 100 1010.9
20260510031510 68 182 0.0 6.0 0.00 1.71 0.14 100 1011.0
20260510031006 68 182 2.0 6.0 0.00 1.71 0.14 100 1011.3
20260510030609 68 182 2.0 6.0 0.00 1.71 0.14 100 1011.5
20260510030119 69 175 3.0 5.0 0.00 0.00 0.14 100 1011.6
20260510030019 68 175 1.0 5.0 0.00 1.71 0.14 100 1011.7
20260510025533 68 173 1.0 5.0 0.00 1.71 0.14 100 1011.4
20260510025049 68 173 2.0 5.0 0.00 1.71 0.14 100 1011.5
20260510025045 68 173 2.0 5.0 0.00 0.00 0.14 100 1011.6
20260510024631 68 170 0.0 4.0 0.00 1.71 0.14 100 1011.5
20260510024056 69 170 1.0 4.0 0.00 0.00 0.14 100 1011.5
20260510024004 68 170 1.0 4.0 0.00 1.71 0.14 100 1011.5
20260510023520 68 123 0.0 1.0 0.00 1.71 0.14 100 1011.4
20260510023040 68 123 0.0 1.0 0.00 1.71 0.14 100 1011.4
20260510023036 68 123 0.0 1.0 0.00 0.00 0.14 100 1011.5
20260510022525 68 123 0.0 1.0 0.00 1.71 0.14 100 1011.4
20260510022040 68 123 0.0 1.0 0.00 1.71 0.14 100 1011.3
20260510022037 68 123 0.0 1.0 0.00 0.00 0.14 100 1011.3
20260510021533 68 123 0.0 1.0 0.00 1.71 0.14 100 1011.4
20260510021051 68 123 0.0 1.0 0.00 1.71 0.14 100 1011.4
20260510021048 68 123 0.0 1.0 0.00 0.00 0.14 100 1011.4
20260510020606 68 123 0.0 1.0 0.00 1.71 0.14 100 1011.3
20260510020122 69 123 0.0 1.0 0.00 0.00 0.14 100 1011.3
20260510020002 68 123 0.0 1.0 0.00 1.71 0.14 100 1011.2
20260510015604 68 123 0.0 0.0 0.00 1.72 0.14 100 1011.1
20260510015008 68 123 0.0 0.0 0.00 1.72 0.14 100 1011.2
20260510014518 68 123 0.0 1.0 0.00 1.72 0.14 100 1011.1
20260510014048 68 123 0.0 1.0 0.00 1.72 0.14 100 1011.1
20260510014043 68 123 0.0 1.0 0.00 0.00 0.14 100 1011.1
20260510013538 68 123 0.0 0.0 0.00 1.72 0.14 100 1011.1
20260510013052 68 123 0.0 1.0 0.00 1.72 0.14 100 1011.1
20260510013047 68 123 0.0 1.0 0.00 0.00 0.14 100 1011.1
20260510012622 68 123 0.0 1.0 0.00 1.72 0.14 100 1011.1
20260510012140 68 123 0.0 1.0 0.00 1.72 0.14 100 1010.9
20260510012048 68 123 0.0 1.0 0.00 0.00 0.14 100 1010.9
20260510011516 68 123 0.0 2.0 0.00 1.72 0.14 100 1010.7
20260510011042 68 124 0.0 2.0 0.00 1.72 0.14 100 1010.6
20260510011038 68 126 0.0 2.0 0.00 0.00 0.14 100 1010.6
20260510010600 68 112 0.0 2.0 0.00 1.72 0.14 100 1010.6
20260510010116 68 223 0.0 2.0 0.00 1.72 0.14 100 1010.5
20260510010111 68 223 0.0 2.0 0.00 0.00 0.14 100 1010.5
20260510005620 68 129 0.0 5.0 0.00 2.06 0.14 100 1010.6
20260510005140 68 126 0.0 5.0 0.00 2.06 0.14 100 1010.5
20260510005046 68 24 0.0 3.0 0.00 0.00 0.14 100 1010.4
20260510004508 68 136 0.0 5.0 0.00 2.06 0.14 100 1010.2
20260510004039 68 136 1.0 6.0 0.00 2.06 0.14 100 1010.2
20260510004034 68 136 1.0 6.0 0.00 0.00 0.14 100 1010.2
20260510003525 68 123 0.0 6.0 0.00 2.06 0.14 100 1010.2
20260510003043 68 169 0.0 2.0 0.00 2.06 0.14 100 1010.1
20260510003038 69 169 0.0 2.0 0.00 0.00 0.14 100 1010.1
20260510002619 68 131 0.0 2.0 0.00 2.06 0.14 100 1010.1
20260510002137 68 131 0.0 2.0 0.00 2.06 0.14 100 1009.9
20260510002044 68 131 0.0 2.0 0.00 0.00 0.14 100 1009.9
20260510001508 68 131 0.0 5.0 0.00 2.06 0.14 100 1009.8
20260510001109 68 131 1.0 5.0 0.00 0.00 0.14 100 1009.8
20260510001022 68 131 1.0 5.0 0.00 2.06 0.14 100 1009.7
20260510000556 68 130 0.0 4.0 0.00 2.06 0.14 100 1009.8
20260510000111 68 185 0.0 4.0 0.00 2.06 0.14 100 1010.0
20260510000108 68 185 0.0 4.0 0.00 0.00 0.14 100 1010.0
20260509235527 68 218 0.0 1.0 0.00 2.06 0.14 100 1009.9
20260509235043 68 218 0.0 2.0 0.00 2.06 0.14 100 1009.8
20260509235039 68 218 0.0 2.0 0.00 0.00 0.14 100 1009.8
20260509234553 68 128 0.0 2.0 0.01 2.06 0.14 100 1009.7
20260509234109 68 128 0.0 2.0 0.02 2.06 0.14 100 1009.8
20260509233519 67 128 0.0 2.0 0.02 2.06 0.14 100 1010.0
20260509233039 68 128 0.0 2.0 0.02 2.06 0.14 100 1009.9
20260509233035 68 128 1.0 2.0 0.02 0.00 0.14 100 1009.9
20260509232526 67 126 0.0 5.0 0.02 2.06 0.14 100 1010.0
20260509232041 67 126 1.0 5.0 0.02 2.06 0.14 100 1009.8
20260509232036 68 126 2.0 5.0 0.02 0.00 0.14 100 1009.8
20260509231539 67 148 0.0 4.0 0.03 2.06 0.14 100 1009.8
20260509231051 67 124 1.0 3.0 0.03 2.06 0.14 100 1009.7
20260509231047 68 124 2.0 4.0 0.03 0.00 0.14 100 1009.7
20260509230555 67 124 0.0 1.0 0.03 2.06 0.14 100 1009.8
20260509230114 67 124 0.0 1.0 0.04 2.06 0.14 100 1009.9
20260509230108 68 124 0.0 1.0 0.04 0.00 0.14 100 1009.9
20260509225615 67 124 0.0 1.0 0.04 2.23 0.14 100 1010.0
20260509225048 67 124 0.0 2.0 0.05 2.23 0.14 100 1010.5
20260509225041 68 124 0.0 2.0 0.05 0.00 0.14 100 1010.5
20260509224558 67 124 0.0 2.0 0.04 2.22 0.13 100 1010.4
20260509224108 67 213 0.0 2.0 0.04 2.21 0.12 100 1010.5
20260509223524 67 213 0.0 5.0 0.05 2.21 0.12 100 1010.5
20260509223038 67 192 1.0 5.0 0.07 2.21 0.12 100 1010.4
20260509223034 68 192 1.0 5.0 0.07 0.00 0.12 100 1010.4
20260509222549 67 182 0.0 2.0 0.08 2.21 0.12 100 1010.1
20260509222104 67 182 0.0 4.0 0.09 2.21 0.12 100 1010.1
20260509221533 67 150 0.0 2.0 0.09 2.20 0.11 100 1009.9
20260509221045 67 150 0.0 1.0 0.09 2.20 0.11 100 1009.7
20260509221041 67 150 0.0 1.0 0.09 0.00 0.11 100 1009.7
20260509220534 67 150 0.0 2.0 0.09 2.20 0.11 100 1009.7
20260509220110 67 150 0.0 2.0 0.09 2.19 0.10 100 1009.5
20260509215631 67 150 0.0 1.0 0.09 3.51 0.10 100 1009.7
20260509215051 67 150 0.0 1.0 0.08 0.00 0.09 100 1009.8
20260509215005 67 150 0.0 1.0 0.08 3.50 0.09 100 1009.8
20260509214521 67 150 0.0 1.0 0.07 3.49 0.08 100 1009.8
20260509214040 67 150 0.0 2.0 0.06 3.48 0.07 100 1009.8
20260509214036 67 150 0.0 2.0 0.06 0.00 0.07 100 1009.8
20260509213524 67 355 0.0 2.0 0.06 3.48 0.07 100 1009.9
20260509213102 67 355 0.0 2.0 0.04 3.46 0.05 100 1009.9
20260509213043 67 355 0.0 2.0 0.04 0.00 0.05 100 1009.9
20260509212534 67 341 0.0 2.0 0.03 3.45 0.04 100 1010.0
20260509212046 67 267 0.0 4.0 0.02 3.44 0.03 100 1010.5
20260509212042 67 267 0.0 4.0 0.02 0.00 0.03 100 1010.5
20260509211533 67 267 0.0 4.0 0.02 3.43 0.02 100 1010.5
20260509211048 67 266 0.0 2.0 0.02 3.43 0.02 100 1010.6
20260509211043 67 266 1.0 2.0 0.02 0.00 0.02 100 1010.6
20260509210600 67 355 0.0 1.0 0.02 3.43 0.02 100 1010.3
20260509210124 67 355 0.0 1.0 0.01 3.42 0.01 100 1010.0
20260509210120 67 355 0.0 1.0 0.00 0.00 0.01 100 1010.0
20260509205631 67 275 0.0 4.0 0.01 3.42 0.01 100 1009.9
20260509205053 67 68 0.0 4.0 0.00 0.00 0.01 100 1009.7
20260509205007 66 68 0.0 4.0 0.01 3.42 0.01 100 1009.7
20260509204522 66 111 0.0 4.0 0.01 3.42 0.01 100 1009.8
20260509204039 66 111 0.0 2.0 0.01 3.42 0.01 100 1009.7
20260509204035 67 111 0.0 5.0 0.00 0.00 0.01 100 1009.7
20260509203524 66 111 0.0 7.0 0.01 3.42 0.01 100 1009.6
20260509203053 66 109 2.0 10.0 0.01 3.42 0.01 100 1009.5
20260509203048 67 109 2.0 10.0 0.00 0.00 0.01 100 1009.5
20260509202603 66 103 4.0 11.0 0.01 3.42 0.01 100 1009.4
20260509202010 66 124 5.0 12.0 0.01 3.42 0.01 100 1009.4
20260509201527 66 102 6.0 12.0 0.00 3.41 0.00 100 1009.4
20260509201045 66 106 4.0 11.0 0.00 3.41 0.00 100 1009.6
20260509201038 66 128 4.0 11.0 0.00 0.00 0.00 100 1009.6
20260509200545 66 106 7.0 11.0 0.00 3.41 0.00 100 1009.7
20260509200058 66 106 8.0 11.0 0.00 3.41 0.00 100 1009.8
20260509195538 66 107 3.0 7.0 0.00 3.41 0.00 100 1010.1